Time,TemperatureF,DewpointF,PressureIn,WindDirection,WindDirectionDegrees,WindSpeedMPH,WindSpeedGustMPH,Humidity,HourlyPrecipIn,Conditions,Clouds,dailyrainin,SoftwareType,DateUTC
2013-04-05 00:04:00,35.2,30.8,30.04,NNE,22,0.0,0.0,84,0.02,,,0.00,WUHU21523XXSP,2013-04-05 04:04:00,
2013-04-05 00:09:00,35.2,30.8,30.03,NNE,22,0.0,0.0,83,0.02,,,0.00,WUHU21523XXSP,2013-04-05 04:09:00,
2013-04-05 00:14:00,35.2,30.8,30.02,NNE,22,0.0,0.0,84,0.02,,,0.00,WUHU21523XXSP,2013-04-05 04:14:00,
2013-04-05 00:19:00,35.2,30.5,30.02,NNE,22,0.0,0.0,83,0.04,,,0.02,WUHU21523XXSP,2013-04-05 04:19:00,
2013-04-05 00:24:00,35.2,30.5,30.02,NNE,22,0.0,0.0,83,0.04,,,0.02,WUHU21523XXSP,2013-04-05 04:24:00,
2013-04-05 00:29:00,35.4,30.7,30.02,NNE,22,0.0,0.0,83,0.04,,,0.02,WUHU21523XXSP,2013-04-05 04:29:00,
2013-04-05 00:34:00,35.4,30.7,30.01,NNE,22,0.0,0.0,83,0.02,,,0.02,WUHU21523XXSP,2013-04-05 04:34:00,
2013-04-05 00:39:00,35.4,30.7,30.01,NNE,22,0.0,0.0,83,0.02,,,0.02,WUHU21523XXSP,2013-04-05 04:39:00,
2013-04-05 00:44:00,35.4,31.0,30.01,NNE,22,0.0,0.0,84,0.04,,,0.04,WUHU21523XXSP,2013-04-05 04:44:00,
2013-04-05 00:49:00,35.2,30.8,30.00,NNE,22,0.0,0.0,84,0.04,,,0.04,WUHU21523XXSP,2013-04-05 04:49:00,
2013-04-05 00:54:00,35.2,30.8,30.00,NNE,22,0.0,0.0,84,0.04,,,0.04,WUHU21523XXSP,2013-04-05 04:54:00,
2013-04-05 00:59:00,35.2,30.8,30.00,NNE,22,0.0,0.0,84,0.04,,,0.04,WUHU21523XXSP,2013-04-05 04:59:00,
2013-04-05 01:04:00,35.2,30.5,30.00,NNE,22,0.0,0.0,83,0.04,,,0.04,WUHU21523XXSP,2013-04-05 05:04:00,
2013-04-05 01:09:00,35.2,30.5,30.00,NNE,22,0.0,0.0,83,0.04,,,0.04,WUHU21523XXSP,2013-04-05 05:09:00,
2013-04-05 01:14:00,35.4,30.7,30.00,NNE,22,0.0,0.0,83,0.02,,,0.04,WUHU21523XXSP,2013-04-05 05:14:00,
2013-04-05 01:19:00,35.4,31.0,30.00,NNE,22,0.0,0.0,84,0.04,,,0.04,WUHU21523XXSP,2013-04-05 05:19:00,
2013-04-05 01:29:00,35.2,30.8,29.99,NNE,22,0.0,0.0,84,0.04,,,0.06,WUHU21523XXSP,2013-04-05 05:29:00,
2013-04-05 01:34:00,35.4,31.0,30.00,NNE,22,0.0,0.0,84,0.06,,,0.06,WUHU21523XXSP,2013-04-05 05:34:00,
2013-04-05 01:44:00,35.4,31.0,29.99,NNE,22,0.0,0.0,84,0.04,,,0.08,WUHU21523XXSP,2013-04-05 05:44:00,
2013-04-05 01:49:00,35.4,31.0,29.99,NNE,22,0.0,0.0,84,0.04,,,0.08,WUHU21523XXSP,2013-04-05 05:49:00,
2013-04-05 01:54:00,35.4,31.0,29.99,NNE,22,0.0,0.0,84,0.04,,,0.08,WUHU21523XXSP,2013-04-05 05:54:00,
2013-04-05 01:59:00,35.4,31.3,29.99,NNE,22,0.0,0.0,85,0.06,,,0.08,WUHU21523XXSP,2013-04-05 05:59:00,
2013-04-05 02:09:00,35.4,31.3,29.99,NNE,22,0.0,0.0,85,0.06,,,0.10,WUHU21523XXSP,2013-04-05 06:09:00,
2013-04-05 02:19:00,35.4,31.0,29.99,NNE,22,0.0,0.0,84,0.04,,,0.10,WUHU21523XXSP,2013-04-05 06:19:00,
2013-04-05 02:29:00,35.4,31.3,29.98,NNE,22,0.0,0.0,85,0.04,,,0.10,WUHU21523XXSP,2013-04-05 06:29:00,
2013-04-05 02:34:00,35.4,31.3,29.98,NNE,22,0.0,0.0,84,0.02,,,0.10,WUHU21523XXSP,2013-04-05 06:34:00,
2013-04-05 02:39:00,35.4,31.3,29.99,NNE,22,0.0,0.0,85,0.04,,,0.12,WUHU21523XXSP,2013-04-05 06:39:00,
2013-04-05 02:49:00,35.4,31.3,29.97,NNE,22,0.0,0.0,85,0.04,,,0.12,WUHU21523XXSP,2013-04-05 06:49:00,
2013-04-05 02:54:00,35.4,31.3,29.96,NNE,22,0.0,0.0,85,0.04,,,0.12,WUHU21523XXSP,2013-04-05 06:54:00,
2013-04-05 02:59:00,35.4,31.3,29.96,NNE,22,0.0,0.0,85,0.02,,,0.12,WUHU21523XXSP,2013-04-05 06:59:00,
2013-04-05 03:09:00,35.4,31.3,29.96,NNE,22,0.0,0.0,85,0.04,,,0.12,WUHU21523XXSP,2013-04-05 07:09:00,
2013-04-05 03:19:00,35.4,31.3,29.96,NNE,22,0.0,0.0,85,0.04,,,0.14,WUHU21523XXSP,2013-04-05 07:19:00,
2013-04-05 03:29:00,35.4,31.3,29.96,NNE,22,0.0,0.0,85,0.04,,,0.14,WUHU21523XXSP,2013-04-05 07:29:00,
2013-04-05 03:39:00,35.4,31.3,29.96,NNE,22,0.0,0.0,85,0.02,,,0.14,WUHU21523XXSP,2013-04-05 07:39:00,
2013-04-05 03:44:00,35.4,31.3,29.95,NNE,22,0.0,0.0,85,0.02,,,0.14,WUHU21523XXSP,2013-04-05 07:44:00,
2013-04-05 03:54:00,35.4,31.3,29.96,NNE,22,0.0,0.0,85,0.02,,,0.14,WUHU21523XXSP,2013-04-05 07:54:00,
2013-04-05 03:59:00,35.4,31.3,29.96,NNE,22,0.0,0.0,85,0.02,,,0.14,WUHU21523XXSP,2013-04-05 07:59:00,
2013-04-05 04:04:00,35.4,31.3,29.96,NNE,22,0.0,0.0,85,0.02,,,0.14,WUHU21523XXSP,2013-04-05 08:04:00,
2013-04-05 04:14:00,35.6,31.7,29.96,NNE,22,0.0,0.0,86,0.00,,,0.14,WUHU21523XXSP,2013-04-05 08:14:00,
2013-04-05 04:24:00,35.4,31.6,29.96,NNE,22,0.0,0.0,86,0.02,,,0.16,WUHU21523XXSP,2013-04-05 08:24:00,
2013-04-05 04:34:00,35.8,31.9,29.96,NNE,22,0.0,0.0,86,0.02,,,0.16,WUHU21523XXSP,2013-04-05 08:34:00,
2013-04-05 04:39:00,35.8,31.9,29.96,NNE,22,0.0,0.0,86,0.02,,,0.16,WUHU21523XXSP,2013-04-05 08:39:00,
2013-04-05 04:44:00,35.8,31.9,29.97,NNE,22,0.0,0.0,86,0.02,,,0.16,WUHU21523XXSP,2013-04-05 08:44:00,
2013-04-05 04:49:00,35.8,31.9,29.97,NNE,22,0.0,0.0,86,0.02,,,0.16,WUHU21523XXSP,2013-04-05 08:49:00,
2013-04-05 04:54:00,35.8,31.9,29.96,NNE,22,0.0,0.0,86,0.02,,,0.16,WUHU21523XXSP,2013-04-05 08:54:00,
2013-04-05 04:59:00,35.8,31.9,29.96,NNE,22,0.0,0.0,86,0.02,,,0.16,WUHU21523XXSP,2013-04-05 08:59:00,
2013-04-05 05:09:00,35.8,31.9,29.97,NNE,22,0.0,0.0,86,0.02,,,0.16,WUHU21523XXSP,2013-04-05 09:09:00,
2013-04-05 05:14:00,35.8,31.9,29.96,NNE,22,0.0,0.0,86,0.00,,,0.16,WUHU21523XXSP,2013-04-05 09:14:00,
2013-04-05 05:19:00,35.8,31.9,29.97,NNE,22,0.0,0.0,86,0.02,,,0.18,WUHU21523XXSP,2013-04-05 09:19:00,
2013-04-05 05:24:00,35.8,31.9,29.97,NNE,22,0.0,0.0,86,0.02,,,0.18,WUHU21523XXSP,2013-04-05 09:24:00,
2013-04-05 05:29:00,35.8,32.2,29.97,NNE,22,0.0,0.0,87,0.02,,,0.18,WUHU21523XXSP,2013-04-05 09:29:00,
2013-04-05 05:39:00,35.8,32.2,29.97,NNE,22,0.0,0.0,87,0.02,,,0.18,WUHU21523XXSP,2013-04-05 09:39:00,
2013-04-05 05:44:00,35.8,32.2,29.96,NNE,22,0.0,0.0,87,0.02,,,0.18,WUHU21523XXSP,2013-04-05 09:44:00,
2013-04-05 05:54:00,35.8,32.2,29.97,NNE,22,0.0,0.0,87,0.02,,,0.18,WUHU21523XXSP,2013-04-05 09:54:00,
2013-04-05 06:04:00,35.8,31.9,29.96,NNE,22,0.0,0.0,86,0.02,,,0.18,WUHU21523XXSP,2013-04-05 10:04:00,
2013-04-05 06:09:00,35.8,31.9,29.96,NNE,22,0.0,0.0,86,0.04,,,0.20,WUHU21523XXSP,2013-04-05 10:09:00,
2013-04-05 06:19:00,35.8,31.9,29.96,NNE,22,0.0,0.0,86,0.02,,,0.20,WUHU21523XXSP,2013-04-05 10:19:00,
2013-04-05 06:24:00,35.8,31.9,29.96,NNE,22,0.0,0.0,86,0.02,,,0.20,WUHU21523XXSP,2013-04-05 10:24:00,
2013-04-05 06:34:00,35.6,31.7,29.96,NNE,22,0.0,0.0,86,0.02,,,0.20,WUHU21523XXSP,2013-04-05 10:34:00,
2013-04-05 06:39:00,35.4,31.6,29.95,NNE,22,0.0,0.0,86,0.02,,,0.20,WUHU21523XXSP,2013-04-05 10:39:00,
2013-04-05 06:44:00,35.6,31.7,29.95,NNE,22,0.0,0.0,86,0.02,,,0.20,WUHU21523XXSP,2013-04-05 10:44:00,
2013-04-05 06:54:00,35.8,31.9,29.96,NNE,22,0.0,0.0,86,0.04,,,0.23,WUHU21523XXSP,2013-04-05 10:54:00,
2013-04-05 06:59:00,35.8,31.9,29.96,NNE,22,0.0,0.0,86,0.04,,,0.23,WUHU21523XXSP,2013-04-05 10:59:00,
2013-04-05 07:09:00,35.8,31.9,29.96,NNE,22,0.0,0.0,86,0.02,,,0.23,WUHU21523XXSP,2013-04-05 11:09:00,
2013-04-05 07:14:00,35.8,31.9,29.96,NNE,22,0.0,0.0,86,0.02,,,0.23,WUHU21523XXSP,2013-04-05 11:14:00,
2013-04-05 07:19:00,36.0,32.4,29.96,NNE,22,0.0,0.0,87,0.02,,,0.23,WUHU21523XXSP,2013-04-05 11:19:00,
2013-04-05 07:29:00,36.1,32.6,29.96,NE,45,0.0,0.0,87,0.02,,,0.23,WUHU21523XXSP,2013-04-05 11:29:00,
2013-04-05 07:39:00,36.3,32.8,29.96,NE,45,0.0,0.0,87,0.02,,,0.23,WUHU21523XXSP,2013-04-05 11:39:00,
2013-04-05 07:44:00,36.3,32.8,29.96,NE,45,0.0,0.0,87,0.02,,,0.23,WUHU21523XXSP,2013-04-05 11:44:00,
2013-04-05 07:54:00,36.5,33.2,29.96,NE,45,0.0,0.0,88,0.02,,,0.25,WUHU21523XXSP,2013-04-05 11:54:00,
2013-04-05 07:59:00,36.5,33.2,29.96,NE,45,0.9,0.9,88,0.02,,,0.25,WUHU21523XXSP,2013-04-05 11:59:00,
2013-04-05 08:04:00,36.7,33.4,29.96,NE,45,0.0,0.9,88,0.02,,,0.25,WUHU21523XXSP,2013-04-05 12:04:00,
2013-04-05 08:14:00,36.9,33.9,29.96,NE,45,0.0,0.0,89,0.02,,,0.25,WUHU21523XXSP,2013-04-05 12:14:00,
2013-04-05 08:19:00,37.0,34.1,29.96,NNW,337,0.0,0.0,89,0.02,,,0.25,WUHU21523XXSP,2013-04-05 12:19:00,
2013-04-05 08:29:00,37.2,34.2,29.97,NNW,337,0.0,0.0,89,0.04,,,0.27,WUHU21523XXSP,2013-04-05 12:29:00,
2013-04-05 08:34:00,37.2,34.2,29.97,NNW,337,0.0,0.0,89,0.04,,,0.27,WUHU21523XXSP,2013-04-05 12:34:00,
2013-04-05 08:39:00,37.2,34.2,29.98,NNW,337,0.0,0.0,89,0.04,,,0.27,WUHU21523XXSP,2013-04-05 12:39:00,
2013-04-05 08:49:00,37.2,34.2,29.98,NNW,337,0.0,0.0,89,0.04,,,0.27,WUHU21523XXSP,2013-04-05 12:49:00,
2013-04-05 08:54:00,37.4,34.1,29.98,SW,225,0.0,0.0,88,0.02,,,0.27,WUHU21523XXSP,2013-04-05 12:54:00,
2013-04-05 09:04:00,37.6,34.6,29.99,SW,225,0.0,0.0,89,0.04,,,0.29,WUHU21523XXSP,2013-04-05 13:04:00,
2013-04-05 09:09:00,37.8,34.8,29.99,SW,225,0.0,0.0,89,0.04,,,0.29,WUHU21523XXSP,2013-04-05 13:09:00,
2013-04-05 09:19:00,37.9,35.0,29.99,SW,225,0.0,0.0,89,0.04,,,0.29,WUHU21523XXSP,2013-04-05 13:19:00,
2013-04-05 09:29:00,38.5,35.5,30.00,SW,225,0.0,0.0,89,0.02,,,0.29,WUHU21523XXSP,2013-04-05 13:29:00,
2013-04-05 09:34:00,38.8,35.9,30.00,SW,225,0.0,0.0,89,0.02,,,0.29,WUHU21523XXSP,2013-04-05 13:34:00,
2013-04-05 09:44:00,39.0,36.3,30.00,SW,225,0.0,0.0,90,0.04,,,0.31,WUHU21523XXSP,2013-04-05 13:44:00,
2013-04-05 09:49:00,39.4,36.7,30.00,NW,315,0.0,0.0,90,0.04,,,0.31,WUHU21523XXSP,2013-04-05 13:49:00,
2013-04-05 09:59:00,39.9,37.2,30.00,NW,315,0.0,0.0,90,0.02,,,0.31,WUHU21523XXSP,2013-04-05 13:59:00,
2013-04-05 10:04:00,40.3,37.6,30.00,NW,315,0.0,0.0,90,0.02,,,0.31,WUHU21523XXSP,2013-04-05 14:04:00,
2013-04-05 10:14:00,41.2,38.8,30.00,NW,315,0.0,0.0,91,0.04,,,0.33,WUHU21523XXSP,2013-04-05 14:14:00,
2013-04-05 10:19:00,41.5,39.1,29.99,NNE,22,0.0,0.0,91,0.04,,,0.33,WUHU21523XXSP,2013-04-05 14:19:00,
2013-04-05 10:24:00,41.9,39.5,29.99,WNW,292,0.0,0.0,91,0.06,,,0.33,WUHU21523XXSP,2013-04-05 14:24:00,
2013-04-05 10:29:00,42.1,39.4,29.99,WNW,292,0.0,0.0,90,0.06,,,0.35,WUHU21523XXSP,2013-04-05 14:29:00,
2013-04-05 10:35:00,42.1,39.4,29.99,WNW,292,0.0,0.0,90,0.06,,,0.35,WUHU21523XXSP,2013-04-05 14:35:00,
2013-04-05 10:44:00,43.0,40.0,29.99,NW,315,1.8,3.8,89,0.06,,,0.37,WUHU21523XXSP,2013-04-05 14:44:00,
2013-04-05 10:49:00,43.2,40.0,29.99,NW,315,0.0,1.8,89,0.06,,,0.37,WUHU21523XXSP,2013-04-05 14:49:00,
2013-04-05 10:54:00,43.5,40.0,29.99,NNW,337,0.0,0.0,88,0.06,,,0.37,WUHU21523XXSP,2013-04-05 14:54:00,
2013-04-05 10:59:00,43.7,39.9,29.99,NNW,337,0.0,0.0,87,0.06,,,0.37,WUHU21523XXSP,2013-04-05 14:59:00,
2013-04-05 11:09:00,43.9,39.6,29.99,NNE,22,0.0,0.0,85,0.06,,,0.39,WUHU21523XXSP,2013-04-05 15:09:00,
2013-04-05 11:14:00,44.1,39.8,29.99,NNW,337,0.9,0.9,85,0.06,,,0.39,WUHU21523XXSP,2013-04-05 15:14:00,
2013-04-05 11:24:00,44.4,39.6,29.99,WSW,257,3.0,6.3,83,0.06,,,0.39,WUHU21523XXSP,2013-04-05 15:24:00,
2013-04-05 11:29:00,44.4,39.6,29.99,WNW,292,2.5,6.3,83,0.06,,,0.41,WUHU21523XXSP,2013-04-05 15:29:00,
2013-04-05 11:34:00,44.8,39.6,29.99,NNW,337,2.7,6.3,82,0.06,,,0.41,WUHU21523XXSP,2013-04-05 15:34:00,
2013-04-05 11:39:00,45.0,39.8,29.99,WNW,292,0.0,2.7,82,0.06,,,0.41,WUHU21523XXSP,2013-04-05 15:39:00,
2013-04-05 11:44:00,45.1,40.0,29.99,NW,306,0.3,1.1,82,0.06,,,0.43,WUHU21523XXSP,2013-04-05 15:44:00,
2013-04-05 11:49:00,45.3,39.9,29.99,WNW,292,0.4,1.1,81,0.06,,,0.43,WUHU21523XXSP,2013-04-05 15:49:00,
2013-04-05 11:54:00,45.7,40.2,29.99,NW,315,0.0,0.4,81,0.06,,,0.43,WUHU21523XXSP,2013-04-05 15:54:00,
2013-04-05 12:04:00,46.2,40.5,29.98,West,270,0.4,4.3,80,0.04,,,0.43,WUHU21523XXSP,2013-04-05 16:04:00,
2013-04-05 12:09:00,46.2,40.5,29.98,NNW,337,1.3,3.6,80,0.04,,,0.43,WUHU21523XXSP,2013-04-05 16:09:00,
2013-04-05 12:14:00,46.6,40.1,29.97,NW,315,1.8,3.6,78,0.04,,,0.43,WUHU21523XXSP,2013-04-05 16:14:00,
2013-04-05 12:24:00,47.5,40.2,29.98,NW,318,15.1,26.8,76,0.02,,,0.43,WUHU21523XXSP,2013-04-05 16:24:00,
2013-04-05 12:29:00,47.7,40.1,29.98,NNW,337,4.9,26.8,75,0.02,,,0.43,WUHU21523XXSP,2013-04-05 16:29:00,
2013-04-05 12:34:00,48.0,40.0,29.98,NW,315,0.0,26.8,74,0.02,,,0.43,WUHU21523XXSP,2013-04-05 16:34:00,
2013-04-05 12:44:00,48.4,39.4,29.97,NW,318,0.6,1.3,71,0.00,,,0.43,WUHU21523XXSP,2013-04-05 16:44:00,
2013-04-05 12:49:00,48.6,39.2,29.97,NNW,337,1.6,3.8,70,0.00,,,0.43,WUHU21523XXSP,2013-04-05 16:49:00,
2013-04-05 12:54:00,48.7,39.0,29.96,NW,315,0.7,3.8,69,0.00,,,0.43,WUHU21523XXSP,2013-04-05 16:54:00,
2013-04-05 12:59:00,48.9,38.8,29.96,NW,315,3.3,3.8,68,0.00,,,0.43,WUHU21523XXSP,2013-04-05 16:59:00,
2013-04-05 13:09:00,49.5,38.5,29.96,WSW,247,3.1,3.1,66,0.00,,,0.43,WUHU21523XXSP,2013-04-05 17:09:00,
2013-04-05 13:14:00,49.3,38.8,29.96,West,281,0.3,3.1,67,0.00,,,0.43,WUHU21523XXSP,2013-04-05 17:14:00,
2013-04-05 13:24:00,49.6,38.3,29.96,NNW,333,2.6,4.7,65,0.00,,,0.43,WUHU21523XXSP,2013-04-05 17:24:00,
2013-04-05 13:34:00,50.2,38.8,29.96,SSW,202,25.7,25.7,65,0.00,,,0.43,WUHU21523XXSP,2013-04-05 17:34:00,
2013-04-05 13:39:00,50.7,38.9,29.95,NW,326,6.6,25.7,64,0.00,,,0.43,WUHU21523XXSP,2013-04-05 17:39:00,
2013-04-05 13:49:00,51.6,38.9,29.95,NNW,337,2.7,14.5,62,0.00,,,0.43,WUHU21523XXSP,2013-04-05 17:49:00,
2013-04-05 13:59:00,52.9,38.9,29.95,NNW,337,2.3,4.5,59,0.00,,,0.43,WUHU21523XXSP,2013-04-05 17:59:00,
2013-04-05 14:09:00,53.8,38.4,29.95,West,270,2.7,5.4,56,0.00,,,0.43,WUHU21523XXSP,2013-04-05 18:09:00,
2013-04-05 14:14:00,54.1,38.7,29.94,WNW,296,15.8,25.9,56,0.00,,,0.43,WUHU21523XXSP,2013-04-05 18:14:00,
2013-04-05 14:19:00,54.3,37.9,29.94,North,8,3.8,25.9,54,0.00,,,0.43,WUHU21523XXSP,2013-04-05 18:19:00,
2013-04-05 14:24:00,54.7,38.7,29.94,NNW,337,0.7,4.9,55,0.00,,,0.43,WUHU21523XXSP,2013-04-05 18:24:00,
2013-04-05 14:34:00,55.0,38.1,29.94,NNW,337,19.9,19.9,53,0.00,,,0.43,WUHU21523XXSP,2013-04-05 18:34:00,
2013-04-05 14:39:00,55.2,38.8,29.94,NNW,337,3.4,19.9,54,0.00,,,0.43,WUHU21523XXSP,2013-04-05 18:39:00,
2013-04-05 14:44:00,55.4,38.4,29.94,NW,315,0.4,4.0,53,0.00,,,0.43,WUHU21523XXSP,2013-04-05 18:44:00,
2013-04-05 14:54:00,55.9,39.5,29.94,West,272,2.4,4.0,54,0.00,,,0.43,WUHU21523XXSP,2013-04-05 18:54:00,
2013-04-05 15:04:00,56.1,38.2,29.93,NW,307,1.7,4.9,51,0.00,,,0.43,WUHU21523XXSP,2013-04-05 19:04:00,
2013-04-05 15:14:00,56.5,38.6,29.93,NNW,328,3.4,6.3,51,0.00,,,0.43,WUHU21523XXSP,2013-04-05 19:14:00,
2013-04-05 15:24:00,56.8,38.5,29.92,NW,315,0.9,5.4,50,0.00,,,0.43,WUHU21523XXSP,2013-04-05 19:24:00,
2013-04-05 15:29:00,57.0,38.7,29.92,NE,45,2.9,5.6,50,0.00,,,0.43,WUHU21523XXSP,2013-04-05 19:29:00,
2013-04-05 15:34:00,57.2,38.8,29.93,NW,321,5.1,7.4,50,0.00,,,0.43,WUHU21523XXSP,2013-04-05 19:34:00,
2013-04-05 15:44:00,57.4,38.4,29.92,NW,315,4.7,4.7,49,0.00,,,0.43,WUHU21523XXSP,2013-04-05 19:44:00,
2013-04-05 15:49:00,57.6,38.6,29.92,WNW,292,4.7,4.7,49,0.00,,,0.43,WUHU21523XXSP,2013-04-05 19:49:00,
2013-04-05 15:54:00,57.7,39.3,29.92,NNW,337,0.0,4.7,50,0.00,,,0.43,WUHU21523XXSP,2013-04-05 19:54:00,
2013-04-05 16:04:00,57.9,38.9,29.92,SE,140,0.5,2.2,49,0.00,,,0.43,WUHU21523XXSP,2013-04-05 20:04:00,
2013-04-05 16:14:00,58.6,38.4,29.92,NNE,15,2.9,4.5,47,0.00,,,0.43,WUHU21523XXSP,2013-04-05 20:14:00,
2013-04-05 16:19:00,59.0,37.6,29.92,North,0,2.0,6.9,45,0.00,,,0.43,WUHU21523XXSP,2013-04-05 20:19:00,
2013-04-05 16:24:00,59.2,37.2,29.91,WSW,239,0.5,6.9,44,0.00,,,0.43,WUHU21523XXSP,2013-04-05 20:24:00,
2013-04-05 16:29:00,59.2,37.7,29.91,WSW,247,0.7,1.3,45,0.00,,,0.43,WUHU21523XXSP,2013-04-05 20:29:00,
2013-04-05 16:39:00,59.5,37.5,29.91,NE,40,4.3,6.9,44,0.00,,,0.43,WUHU21523XXSP,2013-04-05 20:39:00,
2013-04-05 16:44:00,59.5,37.5,29.91,NW,320,1.5,6.9,44,0.00,,,0.43,WUHU21523XXSP,2013-04-05 20:44:00,
2013-04-05 16:49:00,59.7,36.5,29.91,NW,315,4.9,4.9,42,0.00,,,0.43,WUHU21523XXSP,2013-04-05 20:49:00,
2013-04-05 16:54:00,59.9,36.1,29.91,North,2,2.9,4.9,41,0.00,,,0.43,WUHU21523XXSP,2013-04-05 20:54:00,
2013-04-05 16:59:00,60.1,35.7,29.92,NW,324,5.3,6.3,40,0.00,,,0.43,WUHU21523XXSP,2013-04-05 20:59:00,
2013-04-05 17:09:00,60.1,36.2,29.92,NW,315,4.3,4.3,41,0.00,,,0.43,WUHU21523XXSP,2013-04-05 21:09:00,
2013-04-05 17:14:00,60.1,35.7,29.92,NNW,337,7.6,7.6,40,0.00,,,0.43,WUHU21523XXSP,2013-04-05 21:14:00,
2013-04-05 17:24:00,60.1,35.7,29.92,NNW,335,2.2,4.5,40,0.00,,,0.43,WUHU21523XXSP,2013-04-05 21:24:00,
2013-04-05 17:29:00,60.1,35.7,29.92,North,0,3.4,4.5,40,0.00,,,0.43,WUHU21523XXSP,2013-04-05 21:29:00,
2013-04-05 17:34:00,60.3,35.8,29.93,NW,322,1.8,3.4,40,0.00,,,0.43,WUHU21523XXSP,2013-04-05 21:34:00,
2013-04-05 17:44:00,60.1,35.7,29.92,NNE,22,5.4,5.4,40,0.00,,,0.43,WUHU21523XXSP,2013-04-05 21:44:00,
2013-04-05 17:55:00,60.1,35.0,29.92,NNW,337,4.1,22.8,39,0.00,,,0.43,WUHU21523XXSP,2013-04-05 21:55:00,
2013-04-05 18:04:00,60.4,34.6,29.93,NW,315,2.5,6.0,38,0.00,,,0.43,WUHU21523XXSP,2013-04-05 22:04:00,
2013-04-05 18:14:00,60.4,33.8,29.93,NW,324,4.0,4.7,37,0.00,,,0.43,WUHU21523XXSP,2013-04-05 22:14:00,
2013-04-05 18:19:00,60.4,34.6,29.94,NNW,345,3.8,5.4,38,0.00,,,0.43,WUHU21523XXSP,2013-04-05 22:19:00,
2013-04-05 18:29:00,60.4,34.6,29.94,NNW,329,2.3,4.0,38,0.00,,,0.43,WUHU21523XXSP,2013-04-05 22:29:00,
2013-04-05 18:39:00,60.1,34.2,29.94,NW,315,2.3,5.8,38,0.00,,,0.43,WUHU21523XXSP,2013-04-05 22:39:00,
2013-04-05 18:44:00,60.1,33.5,29.94,NW,315,5.1,5.6,37,0.00,,,0.43,WUHU21523XXSP,2013-04-05 22:44:00,
2013-04-05 18:49:00,60.1,33.5,29.94,NNW,327,2.3,5.6,37,0.00,,,0.43,WUHU21523XXSP,2013-04-05 22:49:00,
2013-04-05 18:54:00,60.1,33.5,29.94,North,6,1.0,3.4,37,0.00,,,0.43,WUHU21523XXSP,2013-04-05 22:54:00,
2013-04-05 18:59:00,59.9,33.4,29.95,NNW,348,1.8,3.1,37,0.00,,,0.43,WUHU21523XXSP,2013-04-05 22:59:00,
2013-04-05 19:04:00,59.7,33.2,29.95,NNW,337,4.9,7.4,37,0.00,,,0.43,WUHU21523XXSP,2013-04-05 23:04:00,
2013-04-05 19:09:00,59.7,33.2,29.95,NW,315,2.7,7.4,37,0.00,,,0.43,WUHU21523XXSP,2013-04-05 23:09:00,
2013-04-05 19:19:00,59.4,32.9,29.96,North,6,2.2,4.5,37,0.00,,,0.43,WUHU21523XXSP,2013-04-05 23:19:00,
2013-04-05 19:24:00,59.4,32.9,29.96,NW,315,3.1,3.8,37,0.00,,,0.43,WUHU21523XXSP,2013-04-05 23:24:00,
2013-04-05 19:29:00,59.0,33.3,29.96,NW,315,7.9,15.2,38,0.00,,,0.43,WUHU21523XXSP,2013-04-05 23:29:00,
2013-04-05 19:34:00,58.8,33.8,29.96,NW,315,0.0,15.2,39,0.00,,,0.43,WUHU21523XXSP,2013-04-05 23:34:00,
2013-04-05 19:39:00,58.5,33.5,29.96,NW,315,0.0,0.0,39,0.00,,,0.43,WUHU21523XXSP,2013-04-05 23:39:00,
2013-04-05 19:44:00,58.1,33.2,29.97,NW,315,1.6,1.6,39,0.00,,,0.43,WUHU21523XXSP,2013-04-05 23:44:00,
2013-04-05 19:49:00,57.7,33.6,29.97,West,270,0.0,1.6,40,0.00,,,0.43,WUHU21523XXSP,2013-04-05 23:49:00,
2013-04-05 19:54:00,57.4,33.2,29.97,West,270,0.0,0.0,40,0.00,,,0.43,WUHU21523XXSP,2013-04-05 23:54:00,
2013-04-05 20:04:00,56.5,33.0,29.98,West,270,0.0,0.0,41,0.00,,,0.43,WUHU21523XXSP,2013-04-06 00:04:00,
2013-04-05 20:09:00,56.3,33.4,29.98,West,270,0.0,0.0,42,0.00,,,0.43,WUHU21523XXSP,2013-04-06 00:09:00,
2013-04-05 20:14:00,55.9,33.1,29.99,West,270,0.0,0.0,42,0.00,,,0.43,WUHU21523XXSP,2013-04-06 00:14:00,
2013-04-05 20:24:00,55.4,33.7,29.99,West,270,0.0,0.0,44,0.00,,,0.43,WUHU21523XXSP,2013-04-06 00:24:00,
2013-04-05 20:29:00,55.2,33.5,29.99,West,270,0.0,0.0,44,0.00,,,0.43,WUHU21523XXSP,2013-04-06 00:29:00,
2013-04-05 20:34:00,54.7,33.0,30.00,West,270,0.0,0.0,44,0.00,,,0.43,WUHU21523XXSP,2013-04-06 00:34:00,
2013-04-05 20:39:00,54.5,33.4,30.00,West,270,0.0,0.0,45,0.00,,,0.43,WUHU21523XXSP,2013-04-06 00:39:00,
2013-04-05 20:49:00,54.3,33.3,30.00,North,0,0.0,0.0,45,0.00,,,0.43,WUHU21523XXSP,2013-04-06 00:49:00,
2013-04-05 20:54:00,54.1,33.1,30.00,North,0,0.0,0.0,45,0.00,,,0.43,WUHU21523XXSP,2013-04-06 00:54:00,
2013-04-05 20:59:00,54.0,33.5,30.01,North,0,0.0,0.0,46,0.00,,,0.43,WUHU21523XXSP,2013-04-06 00:59:00,
2013-04-05 21:04:00,53.4,33.0,30.01,North,0,0.0,0.0,46,0.00,,,0.43,WUHU21523XXSP,2013-04-06 01:04:00,
2013-04-05 21:09:00,53.4,33.6,30.02,North,0,0.0,0.0,47,0.00,,,0.43,WUHU21523XXSP,2013-04-06 01:09:00,
2013-04-05 21:14:00,52.9,33.7,30.01,North,0,0.0,0.0,48,0.00,,,0.43,WUHU21523XXSP,2013-04-06 01:14:00,
2013-04-05 21:20:00,52.5,33.3,30.02,North,0,0.0,0.0,48,0.00,,,0.43,WUHU21523XXSP,2013-04-06 01:20:00,
2013-04-05 21:25:00,52.3,33.7,30.02,North,0,0.0,0.0,49,0.00,,,0.43,WUHU21523XXSP,2013-04-06 01:25:00,
2013-04-05 21:30:00,52.0,33.4,30.02,North,0,0.0,0.0,49,0.00,,,0.43,WUHU21523XXSP,2013-04-06 01:30:00,
2013-04-05 21:40:00,51.6,33.6,30.02,North,0,0.0,0.0,50,0.00,,,0.43,WUHU21523XXSP,2013-04-06 01:40:00,
2013-04-05 21:45:00,51.1,33.2,30.03,North,0,0.0,0.0,50,0.00,,,0.43,WUHU21523XXSP,2013-04-06 01:45:00,
2013-04-05 21:50:00,51.1,33.6,30.03,North,0,0.0,0.0,51,0.00,,,0.43,WUHU21523XXSP,2013-04-06 01:50:00,
2013-04-05 21:55:00,50.9,33.4,30.03,North,0,0.0,0.0,51,0.00,,,0.43,WUHU21523XXSP,2013-04-06 01:55:00,
2013-04-05 22:00:00,50.7,33.7,30.03,West,270,0.0,0.0,52,0.00,,,0.43,WUHU21523XXSP,2013-04-06 02:00:00,
2013-04-05 22:05:00,50.5,33.6,30.04,West,270,0.0,0.0,52,0.00,,,0.43,WUHU21523XXSP,2013-04-06 02:05:00,
2013-04-05 22:10:00,50.4,33.4,30.04,West,270,0.0,0.0,52,0.00,,,0.43,WUHU21523XXSP,2013-04-06 02:10:00,
2013-04-05 22:15:00,50.2,33.7,30.04,West,270,0.0,0.0,53,0.00,,,0.43,WUHU21523XXSP,2013-04-06 02:15:00,
2013-04-05 22:20:00,49.8,33.4,30.04,West,270,0.0,0.0,53,0.00,,,0.43,WUHU21523XXSP,2013-04-06 02:20:00,
2013-04-05 22:25:00,49.8,33.4,30.04,West,270,0.0,0.0,53,0.00,,,0.43,WUHU21523XXSP,2013-04-06 02:25:00,
2013-04-05 22:35:00,49.6,33.6,30.04,West,270,0.0,0.0,54,0.00,,,0.43,WUHU21523XXSP,2013-04-06 02:35:00,
2013-04-05 22:40:00,49.3,33.3,30.04,West,270,0.0,0.0,54,0.00,,,0.43,WUHU21523XXSP,2013-04-06 02:40:00,
2013-04-05 22:50:00,49.1,33.1,30.04,West,270,0.0,0.0,54,0.00,,,0.43,WUHU21523XXSP,2013-04-06 02:50:00,
2013-04-05 22:55:00,48.9,33.4,30.04,West,270,0.0,0.0,55,0.00,,,0.43,WUHU21523XXSP,2013-04-06 02:55:00,
2013-04-05 23:05:00,48.6,33.5,30.04,West,270,0.0,0.0,56,0.00,,,0.43,WUHU21523XXSP,2013-04-06 03:05:00,
2013-04-05 23:15:00,48.4,33.4,30.04,West,270,0.0,0.0,56,0.00,,,0.43,WUHU21523XXSP,2013-04-06 03:15:00,
2013-04-05 23:20:00,48.2,33.7,30.04,West,270,0.0,0.0,57,0.00,,,0.43,WUHU21523XXSP,2013-04-06 03:20:00,
2013-04-05 23:25:00,48.0,33.5,30.04,West,270,0.0,0.0,57,0.00,,,0.43,WUHU21523XXSP,2013-04-06 03:25:00,
2013-04-05 23:30:00,48.0,33.5,30.05,West,270,0.0,0.0,57,0.00,,,0.43,WUHU21523XXSP,2013-04-06 03:30:00,
2013-04-05 23:40:00,47.8,33.8,30.05,West,270,0.0,0.0,58,0.00,,,0.43,WUHU21523XXSP,2013-04-06 03:40:00,
2013-04-05 23:45:00,47.8,33.8,30.05,West,270,0.0,0.0,58,0.00,,,0.43,WUHU21523XXSP,2013-04-06 03:45:00,
2013-04-05 23:50:00,47.5,33.4,30.05,West,270,0.0,0.0,58,0.00,,,0.43,WUHU21523XXSP,2013-04-06 03:50:00,
2013-04-05 23:55:00,47.5,33.4,30.05,West,270,0.0,0.0,58,0.00,,,0.43,WUHU21523XXSP,2013-04-06 03:55:00,